Regional Weather Roundup
Issued by NWS

Home | Current Version | Previous Version | Text Only | Print | Product List | Glossary On
Versions: 1 2 3 4 5 6 7 8 9 10 11 12 13 14 15 16 17 18 19 20 21 22 23 24 25 26 27 28 29 30 31 32 33 34 35 36 37 38 39 40 41 42 43 44 45 46 47 48 49 50
594
ASUS43 KDMX 250406
RWRIA

WEATHER ROUNDUP FOR IOWA
NATIONAL WEATHER SERVICE DES MOINES IA
1100 PM CDT SUN SEP 24 2017

NOTE: "FAIR" INDICATES FEW OR NO CLOUDS BELOW 12,000 FEET WITH NO
SIGNIFICANT WEATHER AND/OR OBSTRUCTIONS TO VISIBILITY.

* - THESE STATIONS ARE NOT NWS STATIONS...THUS NOT UNDER NWS
QUALITY CONTROL.  THEY ALSO DO NOT REPORT WEATHER SUCH
AS PRECIPITATION OR FOG.

IAZ001>003-012>014-020>022-031>034-043>046-250500-
   NORTHWEST IOWA

CITY           SKY/WX    TMP DP  RH WIND       PRES   REMARKS
CARROLL *      CLOUDY    70  70 100 CALM      29.92S
CHEROKEE *     CLOUDY    62  61  97 NW9       29.96S
DENISON *      MOCLDY    66  66 100 NW6       29.96R
LE MARS *      CLOUDY    59  59 100 N6        29.96F
ORANGE CITY *  LGT RAIN  61  61 100 N7        29.97F
SHELDON *      RAIN      59  59 100 VRB6G13   29.97S
SIOUX CITY     CLOUDY    59  59 100 NW8       29.96F
SPENCER        PTCLDY    65  63  93 NW7       29.95S
STORM LAKE *   CLOUDY    64  64 100 W8        29.97R
$$

IAZ055>058-069>071-079>083-090>094-250500-
   SOUTHWEST IOWA

CITY           SKY/WX    TMP DP  RH WIND       PRES   REMARKS
ATLANTIC *     PTCLDY    70  66  88 VRB3      29.92S
AUDUBON *      PTCLDY    66  64  94 CALM      29.94S FOG
CLARINDA *     PTCLDY    68  64  88 SW3       29.94S
COUNCIL BLFS * PTCLDY    66  66 100 NW12      29.94R
CRESTON *      CLEAR     72  63  73 SE7       29.95S
HARLAN  *      PTCLDY    68  68 100 NW7       29.97R
LAMONI         CLEAR     75  64  68 S6        29.95R
RED OAK *      MOCLDY    72  66  83 S5        29.92S
SHENANDOAH *   CLOUDY    72  64  78 SE5       29.92R
$$

IAZ047>049-059>061-072>074-084-250500-
   CENTRAL IOWA

CITY           SKY/WX    TMP DP  RH WIND       PRES   REMARKS
AMES           PTCLDY    71  65  81 SE5       29.93S
ANKENY *       PTCLDY    72  64  78 CALM      29.94S
BOONE *        MOCLDY    75  63  64 S5        29.92F
CHARITON *     CLEAR     72  63  73 S6        29.94S
DES MOINES     PTCLDY    75  63  66 SE8       29.92S
GRINNELL*      CLEAR     69  62  79 CALM      29.96S
KNOXVILLE *    CLEAR     73  63  68 S6        29.93S
MARSHALLTOWN   CLEAR     71  64  78 SE6       29.94S
NEWTON *       CLEAR     70  63  78 SE6       29.95R
PELLA *        CLEAR     73  63  68 S3        29.95S
PERRY *        MOCLDY    74  62  65 S5        29.92S
$$

IAZ004>006-015-016-023>025-035-036-250500-
   NORTH CENTRAL IOWA

CITY           SKY/WX    TMP DP  RH WIND       PRES   REMARKS
ALGONA *       CLOUDY    68  68 100 CALM      29.94F
CLARION *      CLOUDY    72  66  83 NE5       29.94F
ESTHERVILLE    MOCLDY    66  66 100 N5        29.94S
FORT DODGE *   LGT RAIN  70  66  87 W6        29.94R
MASON CITY     PTCLDY    70  63  78 W9        29.98R
FOREST CITY *  DRIZZLE   70  64  83 W5        29.96S
WEBSTER CITY * CLOUDY    72  64  78 E5        29.92S
IOWA FALLS *     N/A     70  63  78 CALM      29.95S
$$

IAZ007>011-017>019-026>030-037>042-050>054-066-250500-
   NORTHEAST IOWA

CITY           SKY/WX    TMP DP  RH WIND       PRES   REMARKS
CEDAR RAPIDS   CLEAR     68  62  81 SE5       29.95S
CHARLES CITY * CLEAR     73  63  68 SE6       29.95S
CLINTON *      CLEAR    N/A N/A N/A SE7       29.98F
DECORAH *      CLEAR     72  64  78 S6        29.95S
DUBUQUE        CLEAR     70  62  76 S5        29.99S
MONTICELLO *   CLEAR     68  63  83 SE5       29.96S
OELWEIN *      CLEAR     70  64  83 SE7       29.97R
WATERLOO       CLEAR     73  62  68 SE6       29.94R
$$

IAZ064-065-067-068-078-250500-
   EAST CENTRAL IOWA

CITY           SKY/WX    TMP DP  RH WIND       PRES   REMARKS
DAVENPORT      CLEAR     71  63  75 SE6       29.99S
IOWA CITY      CLEAR     71  64  78 CALM      29.97S
MUSCATINE *    CLEAR     70  64  83 CALM      29.96S
QUAD CITIES    CLEAR     74  63  68 E5        29.96F
$$

IAZ062-063-075>077-085>089-095>099-250500-
   SOUTHEAST IOWA

CITY           SKY/WX    TMP DP  RH WIND       PRES   REMARKS
BURLINGTON     CLEAR     74  63  68 SE3       29.96S
FAIRFIELD *    CLEAR     73  61  64 S6        29.95S
FORT MADISON * CLEAR     77  63  61 CALM      29.97S
KEOKUK *       CLEAR     77  63  61 CALM      29.96R
OSKALOOSA *      N/A     71  63  76 SE5       29.95F
OTTUMWA        CLEAR     74  63  68 SE7       29.94F
WASHINGTON *   CLEAR     72  63  73 S6        29.97S
$$

ABBREVIATIONS USED IN REMARKS
   TC - TEMPERATURES IN CELSIUS
  WCI - WIND CHILL INDEX
   HX - HEAT INDEX
  VSB - VISIBILITY
$$





USA.gov is the U.S. government's official web portal to all federal, state and local government web resources and services.